Time,TemperatureF,DewpointF,PressureIn,WindDirection,WindDirectionDegrees,WindSpeedMPH,WindSpeedGustMPH,Humidity,HourlyPrecipIn,Conditions,Clouds,dailyrainin,SoftwareType,DateUTC
2013-09-04 00:01:00,61.0,30.2,29.53,WNW,300,0.0,0.0,31,0.00,,---,0.00,VWS V13.01,2013-09-04 04:01:00,
2013-09-04 00:02:00,61.0,30.2,29.53,WNW,301,0.0,0.0,31,0.00,,---,0.00,VWS V13.01,2013-09-04 04:02:00,
2013-09-04 00:03:00,61.0,30.2,29.53,WNW,301,0.0,0.0,31,0.00,,---,0.00,VWS V13.01,2013-09-04 04:03:00,
2013-09-04 00:06:00,60.8,30.8,29.53,WNW,300,0.0,0.0,32,0.00,,---,0.00,VWS V13.01,2013-09-04 04:06:00,
2013-09-04 00:11:00,60.6,31.4,29.53,WNW,300,0.0,0.0,33,0.00,,---,0.00,VWS V13.01,2013-09-04 04:11:00,
2013-09-04 00:16:00,60.6,31.4,29.53,WNW,300,0.0,0.0,33,0.00,,---,0.00,VWS V13.01,2013-09-04 04:16:00,
2013-09-04 00:21:00,60.6,31.4,29.53,WNW,300,0.0,0.0,33,0.00,,---,0.00,VWS V13.01,2013-09-04 04:21:00,
2013-09-04 00:26:00,60.6,31.4,29.53,WNW,300,0.0,0.0,33,0.00,,---,0.00,VWS V13.01,2013-09-04 04:26:00,
2013-09-04 00:31:00,60.6,31.4,29.53,WNW,300,0.0,0.0,33,0.00,,---,0.00,VWS V13.01,2013-09-04 04:31:00,
2013-09-04 00:37:00,60.4,31.2,29.53,WNW,300,0.0,0.0,33,0.00,,---,0.00,VWS V13.01,2013-09-04 04:37:00,
2013-09-04 00:42:00,60.3,31.1,29.53,WNW,300,0.0,0.0,33,0.00,,---,0.00,VWS V13.01,2013-09-04 04:42:00,
2013-09-04 00:47:00,60.1,30.9,29.53,WNW,300,0.0,0.0,33,0.00,,---,0.00,VWS V13.01,2013-09-04 04:47:00,
2013-09-04 00:52:00,59.9,31.5,29.53,WNW,300,0.0,0.0,34,0.00,,---,0.00,VWS V13.01,2013-09-04 04:52:00,
2013-09-04 00:57:00,59.7,31.3,29.53,WNW,300,0.0,0.0,34,0.00,,---,0.00,VWS V13.01,2013-09-04 04:57:00,
2013-09-04 01:02:00,59.5,31.2,29.53,WNW,300,0.0,0.0,34,0.00,,---,0.00,VWS V13.01,2013-09-04 05:02:00,
2013-09-04 01:07:00,59.5,31.2,29.53,WNW,300,0.0,0.0,34,0.00,,---,0.00,VWS V13.01,2013-09-04 05:07:00,
2013-09-04 01:12:00,59.4,31.0,29.53,WNW,300,0.0,0.0,34,0.00,,---,0.00,VWS V13.01,2013-09-04 05:12:00,
2013-09-04 01:18:00,59.4,31.7,29.53,WNW,300,0.0,0.0,35,0.00,,---,0.00,VWS V13.01,2013-09-04 05:18:00,
2013-09-04 01:23:00,59.2,31.6,29.53,WNW,300,0.0,0.0,35,0.00,,---,0.00,VWS V13.01,2013-09-04 05:23:00,
2013-09-04 01:28:00,59.4,31.7,29.53,WNW,300,0.0,0.0,35,0.00,,---,0.00,VWS V13.01,2013-09-04 05:28:00,
2013-09-04 01:33:00,59.4,31.7,29.53,WNW,300,0.0,0.0,35,0.00,,---,0.00,VWS V13.01,2013-09-04 05:33:00,
2013-09-04 01:38:00,59.2,31.6,29.53,WNW,300,0.0,0.0,35,0.00,,---,0.00,VWS V13.01,2013-09-04 05:38:00,
2013-09-04 01:43:00,59.2,31.6,29.53,WNW,300,0.0,0.0,35,0.00,,---,0.00,VWS V13.01,2013-09-04 05:43:00,
2013-09-04 01:48:00,59.2,31.6,29.53,WNW,300,0.0,0.0,35,0.00,,---,0.00,VWS V13.01,2013-09-04 05:48:00,
2013-09-04 01:53:00,59.2,31.6,29.53,WNW,300,0.0,0.0,35,0.00,,---,0.00,VWS V13.01,2013-09-04 05:53:00,
2013-09-04 01:59:00,59.2,31.6,29.53,WNW,300,0.0,0.0,35,0.00,,---,0.00,VWS V13.01,2013-09-04 05:59:00,
2013-09-04 02:04:00,59.2,31.6,29.53,WNW,300,0.0,0.0,35,0.00,,---,0.00,VWS V13.01,2013-09-04 06:04:00,
2013-09-04 02:09:00,59.0,31.4,29.53,WNW,300,0.0,0.0,35,0.00,,---,0.00,VWS V13.01,2013-09-04 06:09:00,
2013-09-04 02:14:00,58.8,31.2,29.56,WNW,300,0.0,0.0,35,0.00,,---,0.00,VWS V13.01,2013-09-04 06:14:00,
2013-09-04 02:19:00,58.8,31.2,29.56,WNW,300,0.0,0.0,35,0.00,,---,0.00,VWS V13.01,2013-09-04 06:19:00,
2013-09-04 02:24:00,58.8,31.2,29.56,WNW,300,0.0,0.0,35,0.00,,---,0.00,VWS V13.01,2013-09-04 06:24:00,
2013-09-04 02:29:00,58.6,31.1,29.53,WNW,300,0.0,0.0,35,0.00,,---,0.00,VWS V13.01,2013-09-04 06:29:00,
2013-09-04 02:34:00,58.5,30.9,29.53,WNW,300,0.0,0.0,35,0.00,,---,0.00,VWS V13.01,2013-09-04 06:34:00,
2013-09-04 02:39:00,58.5,30.9,29.53,WNW,300,0.0,0.0,35,0.00,,---,0.00,VWS V13.01,2013-09-04 06:39:00,
2013-09-04 02:45:00,58.1,30.6,29.56,WNW,300,0.0,0.0,35,0.00,,---,0.00,VWS V13.01,2013-09-04 06:45:00,
2013-09-04 02:50:00,58.1,30.6,29.56,WNW,300,0.0,0.0,35,0.00,,---,0.00,VWS V13.01,2013-09-04 06:50:00,
2013-09-04 02:55:00,57.9,30.5,29.56,WNW,300,0.0,0.0,35,0.00,,---,0.00,VWS V13.01,2013-09-04 06:55:00,
2013-09-04 03:00:00,57.9,31.1,29.53,WNW,300,0.0,0.0,36,0.00,,---,0.00,VWS V13.01,2013-09-04 07:00:00,
2013-09-04 03:05:00,57.7,30.3,29.53,WNW,300,0.0,0.0,35,0.00,,---,0.00,VWS V13.01,2013-09-04 07:05:00,
2013-09-04 03:10:00,57.7,31.0,29.53,WNW,300,0.0,0.0,36,0.00,,---,0.00,VWS V13.01,2013-09-04 07:10:00,
2013-09-04 03:15:00,57.6,30.8,29.56,WNW,300,0.0,0.0,36,0.00,,---,0.00,VWS V13.01,2013-09-04 07:15:00,
2013-09-04 03:20:00,57.6,30.8,29.56,WNW,300,0.0,0.0,36,0.00,,---,0.00,VWS V13.01,2013-09-04 07:20:00,
2013-09-04 03:25:00,57.6,30.8,29.56,WNW,300,0.0,0.0,36,0.00,,---,0.00,VWS V13.01,2013-09-04 07:25:00,
2013-09-04 03:30:00,57.6,30.8,29.53,WNW,300,0.0,0.0,36,0.00,,---,0.00,VWS V13.01,2013-09-04 07:30:00,
2013-09-04 03:35:00,57.6,31.5,29.53,WNW,300,0.0,0.0,37,0.00,,---,0.00,VWS V13.01,2013-09-04 07:35:00,
2013-09-04 03:41:00,57.6,30.8,29.53,WNW,300,0.0,0.0,36,0.00,,---,0.00,VWS V13.01,2013-09-04 07:41:00,
2013-09-04 03:46:00,57.6,30.8,29.53,WNW,300,0.0,0.0,36,0.00,,---,0.00,VWS V13.01,2013-09-04 07:46:00,
2013-09-04 03:51:00,57.6,30.8,29.53,WNW,300,0.0,0.0,36,0.00,,---,0.00,VWS V13.01,2013-09-04 07:51:00,
2013-09-04 03:56:00,57.7,31.0,29.53,WNW,300,0.0,0.0,36,0.00,,---,0.00,VWS V13.01,2013-09-04 07:56:00,
2013-09-04 04:01:00,57.6,30.8,29.56,WNW,300,0.0,0.0,36,0.00,,---,0.00,VWS V13.01,2013-09-04 08:01:00,
2013-09-04 04:06:00,57.6,30.8,29.56,WNW,300,0.0,0.0,36,0.00,,---,0.00,VWS V13.01,2013-09-04 08:06:00,
2013-09-04 04:11:00,57.4,30.7,29.56,WNW,300,0.0,0.0,36,0.00,,---,0.00,VWS V13.01,2013-09-04 08:11:00,
2013-09-04 04:16:00,57.2,30.5,29.56,WNW,300,0.0,0.0,36,0.00,,---,0.00,VWS V13.01,2013-09-04 08:16:00,
2013-09-04 04:21:00,57.2,30.5,29.56,WNW,300,0.0,0.0,36,0.00,,---,0.00,VWS V13.01,2013-09-04 08:21:00,
2013-09-04 04:26:00,57.2,31.2,29.56,WNW,300,0.0,0.0,37,0.00,,---,0.00,VWS V13.01,2013-09-04 08:26:00,
2013-09-04 04:31:00,57.2,31.2,29.56,WNW,300,0.0,0.0,37,0.00,,---,0.00,VWS V13.01,2013-09-04 08:31:00,
2013-09-04 04:36:00,57.2,31.2,29.56,WNW,300,0.0,0.0,37,0.00,,---,0.00,VWS V13.01,2013-09-04 08:36:00,
2013-09-04 04:42:00,57.4,31.3,29.56,WNW,300,0.0,0.0,37,0.00,,---,0.00,VWS V13.01,2013-09-04 08:42:00,
2013-09-04 04:47:00,57.4,31.3,29.56,WNW,300,0.0,0.0,37,0.00,,---,0.00,VWS V13.01,2013-09-04 08:47:00,
2013-09-04 04:52:00,57.4,31.3,29.56,WNW,300,0.0,0.0,37,0.00,,---,0.00,VWS V13.01,2013-09-04 08:52:00,
2013-09-04 04:57:00,57.6,31.5,29.56,WNW,300,0.0,0.0,37,0.00,,---,0.00,VWS V13.01,2013-09-04 08:57:00,
2013-09-04 05:02:00,57.6,31.5,29.56,WNW,300,0.0,0.0,37,0.00,,---,0.00,VWS V13.01,2013-09-04 09:02:00,
2013-09-04 05:07:00,57.7,31.7,29.56,WNW,300,0.0,0.0,37,0.00,,---,0.00,VWS V13.01,2013-09-04 09:07:00,
2013-09-04 05:12:00,57.9,31.8,29.56,WNW,300,0.0,0.0,37,0.00,,---,0.00,VWS V13.01,2013-09-04 09:12:00,
2013-09-04 05:17:00,57.9,31.8,29.56,WNW,300,0.0,0.0,37,0.00,,---,0.00,VWS V13.01,2013-09-04 09:17:00,
2013-09-04 05:22:00,57.9,31.8,29.56,WNW,300,0.0,0.0,37,0.00,,---,0.00,VWS V13.01,2013-09-04 09:22:00,
2013-09-04 05:27:00,57.9,31.8,29.56,WNW,300,0.0,0.0,37,0.00,,---,0.00,VWS V13.01,2013-09-04 09:27:00,
2013-09-04 05:32:00,57.7,31.7,29.59,WNW,300,0.0,0.0,37,0.00,,---,0.00,VWS V13.01,2013-09-04 09:32:00,
2013-09-04 05:37:00,57.7,31.7,29.59,WNW,300,0.0,0.0,37,0.00,,---,0.00,VWS V13.01,2013-09-04 09:37:00,
2013-09-04 05:42:00,57.6,31.5,29.59,WNW,300,0.0,0.0,37,0.00,,---,0.00,VWS V13.01,2013-09-04 09:42:00,
2013-09-04 05:48:00,57.6,31.5,29.59,WNW,300,0.0,0.0,37,0.00,,---,0.00,VWS V13.01,2013-09-04 09:48:00,
2013-09-04 05:53:00,57.4,30.7,29.59,WNW,300,0.0,0.0,36,0.00,,---,0.00,VWS V13.01,2013-09-04 09:53:00,
2013-09-04 05:58:00,57.2,30.5,29.59,WNW,300,0.0,0.0,36,0.00,,---,0.00,VWS V13.01,2013-09-04 09:58:00,
2013-09-04 06:03:00,57.0,31.0,29.59,WNW,300,0.0,0.0,37,0.00,,---,0.00,VWS V13.01,2013-09-04 10:03:00,
2013-09-04 06:08:00,57.0,31.0,29.59,WNW,300,0.0,0.0,37,0.00,,---,0.00,VWS V13.01,2013-09-04 10:08:00,
2013-09-04 06:13:00,57.0,31.0,29.59,WNW,300,0.0,0.0,37,0.00,,---,0.00,VWS V13.01,2013-09-04 10:13:00,
2013-09-04 06:18:00,57.0,31.7,29.59,WNW,300,0.0,0.0,38,0.00,,---,0.00,VWS V13.01,2013-09-04 10:18:00,
2013-09-04 06:23:00,57.2,31.8,29.59,WSW,258,0.0,0.0,38,0.00,,---,0.00,VWS V13.01,2013-09-04 10:23:00,
2013-09-04 06:28:00,57.2,31.8,29.59,WSW,258,0.0,0.0,38,0.00,,---,0.00,VWS V13.01,2013-09-04 10:28:00,
2013-09-04 06:33:00,57.2,31.2,29.59,WSW,258,0.0,0.0,37,0.00,,---,0.00,VWS V13.01,2013-09-04 10:33:00,
2013-09-04 06:38:00,57.2,31.2,29.59,WSW,258,0.0,0.0,37,0.00,,---,0.00,VWS V13.01,2013-09-04 10:38:00,
2013-09-04 06:43:00,57.2,31.2,29.59,WSW,258,0.0,0.0,37,0.00,,---,0.00,VWS V13.01,2013-09-04 10:43:00,
2013-09-04 06:49:00,57.2,31.2,29.59,WSW,258,0.0,0.0,37,0.00,,---,0.00,VWS V13.01,2013-09-04 10:49:00,
2013-09-04 06:54:00,57.2,31.2,29.59,WSW,258,0.0,0.0,37,0.00,,---,0.00,VWS V13.01,2013-09-04 10:54:00,
2013-09-04 06:59:00,57.2,31.2,29.59,WSW,258,0.0,0.0,37,0.00,,---,0.00,VWS V13.01,2013-09-04 10:59:00,
2013-09-04 07:04:00,57.2,31.2,29.59,WSW,258,0.0,0.0,37,0.00,,---,0.00,VWS V13.01,2013-09-04 11:04:00,
2013-09-04 07:09:00,57.2,31.2,29.59,WSW,258,0.0,0.0,37,0.00,,---,0.00,VWS V13.01,2013-09-04 11:09:00,
2013-09-04 07:14:00,57.0,31.0,29.59,WSW,258,0.0,0.0,37,0.00,,---,0.00,VWS V13.01,2013-09-04 11:14:00,
2013-09-04 07:19:00,57.2,31.2,29.59,WSW,258,0.0,0.0,37,0.00,,---,0.00,VWS V13.01,2013-09-04 11:19:00,
2013-09-04 07:24:00,57.2,31.2,29.59,WSW,258,0.0,0.0,37,0.00,,---,0.00,VWS V13.01,2013-09-04 11:24:00,
2013-09-04 07:29:00,57.4,31.3,29.62,WSW,258,0.0,0.0,37,0.00,,---,0.00,VWS V13.01,2013-09-04 11:29:00,
2013-09-04 07:34:00,57.4,31.3,29.62,WSW,258,0.0,0.0,37,0.00,,---,0.00,VWS V13.01,2013-09-04 11:34:00,
2013-09-04 07:39:00,57.6,32.2,29.62,WSW,258,0.0,0.0,38,0.00,,---,0.00,VWS V13.01,2013-09-04 11:39:00,
2013-09-04 07:44:00,57.7,32.3,29.62,WSW,256,0.0,0.0,38,0.00,,---,0.00,VWS V13.01,2013-09-04 11:44:00,
2013-09-04 07:50:00,57.9,32.5,29.62,WSW,256,0.0,0.0,38,0.00,,---,0.00,VWS V13.01,2013-09-04 11:50:00,
2013-09-04 07:55:00,58.1,32.7,29.62,WSW,256,0.0,0.0,38,0.00,,---,0.00,VWS V13.01,2013-09-04 11:55:00,
2013-09-04 08:00:00,58.5,33.0,29.62,WSW,256,0.0,0.0,38,0.00,,---,0.00,VWS V13.01,2013-09-04 12:00:00,
2013-09-04 08:05:00,58.8,33.3,29.62,WSW,256,0.0,0.0,38,0.00,,---,0.00,VWS V13.01,2013-09-04 12:05:00,
2013-09-04 08:10:00,59.2,33.6,29.62,WNW,285,0.0,0.0,38,0.00,,---,0.00,VWS V13.01,2013-09-04 12:10:00,
2013-09-04 08:15:00,59.4,33.8,29.62,WNW,285,0.0,0.0,38,0.00,,---,0.00,VWS V13.01,2013-09-04 12:15:00,
2013-09-04 08:20:00,59.9,34.2,29.62,WNW,285,0.0,0.0,38,0.00,,---,0.00,VWS V13.01,2013-09-04 12:20:00,
2013-09-04 08:25:00,60.4,35.4,29.62,WNW,285,0.0,0.0,39,0.00,,---,0.00,VWS V13.01,2013-09-04 12:25:00,
2013-09-04 08:30:00,61.0,35.2,29.62,WNW,285,0.0,0.0,38,0.00,,---,0.00,VWS V13.01,2013-09-04 12:30:00,
2013-09-04 08:35:00,61.3,35.5,29.62,WNW,285,0.0,0.0,38,0.00,,---,0.00,VWS V13.01,2013-09-04 12:35:00,
2013-09-04 08:40:00,61.7,35.9,29.62,WNW,285,0.0,0.0,38,0.00,,---,0.00,VWS V13.01,2013-09-04 12:40:00,
2013-09-04 08:45:00,62.1,35.5,29.62,WSW,243,0.0,0.0,37,0.00,,---,0.00,VWS V13.01,2013-09-04 12:45:00,
2013-09-04 08:51:00,62.6,36.0,29.62,NNW,334,0.0,0.0,37,0.00,,---,0.00,VWS V13.01,2013-09-04 12:51:00,
2013-09-04 08:56:00,63.0,35.6,29.62,West,277,0.0,2.7,36,0.00,,---,0.00,VWS V13.01,2013-09-04 12:56:00,
2013-09-04 09:01:00,63.5,34.7,29.62,WNW,299,0.0,0.0,34,0.00,,---,0.00,VWS V13.01,2013-09-04 13:01:00,
2013-09-04 09:06:00,63.9,34.2,29.62,North,353,0.0,0.0,33,0.00,,---,0.00,VWS V13.01,2013-09-04 13:06:00,
2013-09-04 09:11:00,64.2,31.3,29.62,SW,235,0.0,0.0,29,0.00,,---,0.00,VWS V13.01,2013-09-04 13:11:00,
2013-09-04 09:16:00,64.6,29.9,29.62,SW,232,0.0,0.0,27,0.00,,---,0.00,VWS V13.01,2013-09-04 13:16:00,
2013-09-04 09:21:00,64.8,29.1,29.62,WSW,248,0.0,0.0,26,0.00,,---,0.00,VWS V13.01,2013-09-04 13:21:00,
2013-09-04 09:26:00,65.3,28.6,29.62,NW,304,0.0,0.0,25,0.00,,---,0.00,VWS V13.01,2013-09-04 13:26:00,
2013-09-04 09:31:00,66.6,27.6,29.65,WSW,258,0.0,0.0,23,0.00,,---,0.00,VWS V13.01,2013-09-04 13:31:00,
2013-09-04 09:36:00,67.8,28.7,29.65,NW,309,0.0,0.0,23,0.00,,---,0.00,VWS V13.01,2013-09-04 13:36:00,
2013-09-04 09:41:00,68.4,28.1,29.65,WSW,240,3.1,3.1,22,0.00,,---,0.00,VWS V13.01,2013-09-04 13:41:00,
2013-09-04 09:46:00,67.8,27.6,29.62,North,7,0.0,3.1,22,0.00,,---,0.00,VWS V13.01,2013-09-04 13:46:00,
2013-09-04 09:51:00,67.1,28.1,29.62,West,270,0.0,3.1,23,0.04,,---,0.04,VWS V13.01,2013-09-04 13:51:00,
2013-09-04 09:57:00,66.7,24.4,29.62,WNW,295,0.0,3.1,20,0.04,,---,0.04,VWS V13.01,2013-09-04 13:57:00,
2013-09-04 10:02:00,66.6,24.3,29.62,WNW,290,0.0,0.0,20,0.04,,---,0.04,VWS V13.01,2013-09-04 14:02:00,
2013-09-04 10:07:00,66.6,24.3,29.62,WNW,292,0.0,0.0,20,0.04,,---,0.04,VWS V13.01,2013-09-04 14:07:00,
2013-09-04 10:12:00,66.9,26.9,29.62,North,353,0.0,0.0,22,0.04,,---,0.04,VWS V13.01,2013-09-04 14:12:00,
2013-09-04 10:17:00,67.5,25.0,29.62,NW,311,0.0,0.0,20,0.04,,---,0.04,VWS V13.01,2013-09-04 14:17:00,
2013-09-04 10:22:00,67.6,25.2,29.62,NW,306,0.0,0.0,20,0.04,,---,0.04,VWS V13.01,2013-09-04 14:22:00,
2013-09-04 10:27:00,67.8,21.5,29.62,NW,304,0.0,2.7,17,0.04,,---,0.04,VWS V13.01,2013-09-04 14:27:00,
2013-09-04 10:32:00,67.8,25.3,29.62,WSW,248,0.0,2.7,20,0.04,,---,0.04,VWS V13.01,2013-09-04 14:32:00,
2013-09-04 10:37:00,68.0,25.5,29.62,West,280,0.0,2.7,20,0.04,,---,0.04,VWS V13.01,2013-09-04 14:37:00,
2013-09-04 10:42:00,68.2,21.7,29.62,WSW,257,0.0,2.7,17,0.04,,---,0.04,VWS V13.01,2013-09-04 14:42:00,
2013-09-04 10:47:00,68.4,21.9,29.62,NW,314,0.0,2.7,17,0.04,,---,0.04,VWS V13.01,2013-09-04 14:47:00,
2013-09-04 10:52:00,68.5,22.0,29.62,West,277,0.0,2.7,17,0.04,,---,0.04,VWS V13.01,2013-09-04 14:52:00,
2013-09-04 10:58:00,68.5,22.0,29.62,WNW,298,0.0,2.7,17,0.04,,---,0.04,VWS V13.01,2013-09-04 14:58:00,
2013-09-04 11:03:00,68.5,22.0,29.62,NW,318,0.0,0.0,17,0.00,,---,0.04,VWS V13.01,2013-09-04 15:03:00,
2013-09-04 11:08:00,68.9,22.3,29.62,NW,315,0.0,0.0,17,0.00,,---,0.04,VWS V13.01,2013-09-04 15:08:00,
2013-09-04 11:13:00,69.3,19.7,29.62,NW,313,0.0,0.0,15,0.00,,---,0.04,VWS V13.01,2013-09-04 15:13:00,
2013-09-04 11:18:00,69.4,19.8,29.62,ENE,73,0.0,0.0,15,0.00,,---,0.04,VWS V13.01,2013-09-04 15:18:00,
2013-09-04 11:23:00,69.6,20.0,29.62,NNW,328,0.0,0.0,15,0.00,,---,0.04,VWS V13.01,2013-09-04 15:23:00,
2013-09-04 11:28:00,69.8,18.5,29.62,WNW,301,0.0,0.0,14,0.00,,---,0.04,VWS V13.01,2013-09-04 15:28:00,
2013-09-04 11:33:00,69.8,18.5,29.62,WSW,250,0.0,0.0,14,0.00,,---,0.04,VWS V13.01,2013-09-04 15:33:00,
2013-09-04 11:38:00,70.0,18.6,29.62,WNW,296,0.0,0.0,14,0.00,,---,0.04,VWS V13.01,2013-09-04 15:38:00,
2013-09-04 11:43:00,70.2,18.8,29.62,NW,304,0.0,0.0,14,0.00,,---,0.04,VWS V13.01,2013-09-04 15:43:00,
2013-09-04 11:48:00,70.3,18.9,29.62,NW,315,0.0,0.0,14,0.00,,---,0.04,VWS V13.01,2013-09-04 15:48:00,
2013-09-04 11:53:00,70.5,19.1,29.62,WSW,254,0.0,0.0,14,0.00,,---,0.04,VWS V13.01,2013-09-04 15:53:00,
2013-09-04 11:59:00,70.7,19.2,29.62,West,267,0.0,0.0,14,0.00,,---,0.04,VWS V13.01,2013-09-04 15:59:00,
2013-09-04 12:04:00,71.2,19.6,29.62,NE,55,0.0,0.0,14,0.00,,---,0.04,VWS V13.01,2013-09-04 16:04:00,
2013-09-04 12:09:00,73.6,19.8,29.62,NW,316,0.0,0.0,13,0.00,,---,0.04,VWS V13.01,2013-09-04 16:09:00,
2013-09-04 12:14:00,73.6,19.8,29.62,NNE,29,0.0,0.0,13,0.00,,---,0.04,VWS V13.01,2013-09-04 16:14:00,
2013-09-04 12:19:00,74.3,20.3,29.62,NW,321,0.0,0.0,13,0.00,,---,0.04,VWS V13.01,2013-09-04 16:19:00,
2013-09-04 12:24:00,73.6,19.8,29.62,NNW,334,0.0,0.0,13,0.00,,---,0.04,VWS V13.01,2013-09-04 16:24:00,
2013-09-04 12:29:00,73.0,21.1,29.59,WNW,300,0.0,0.0,14,0.00,,---,0.04,VWS V13.01,2013-09-04 16:29:00,
2013-09-04 12:34:00,76.8,22.3,29.59,NW,319,0.0,0.0,13,0.00,,---,0.04,VWS V13.01,2013-09-04 16:34:00,
2013-09-04 12:39:00,75.9,21.6,29.59,WNW,299,0.0,0.0,13,0.00,,---,0.04,VWS V13.01,2013-09-04 16:39:00,
2013-09-04 12:44:00,75.6,21.3,29.59,SW,227,0.0,0.0,13,0.00,,---,0.04,VWS V13.01,2013-09-04 16:44:00,
2013-09-04 12:49:00,77.0,22.4,29.59,WNW,296,0.0,0.0,13,0.00,,---,0.04,VWS V13.01,2013-09-04 16:49:00,
2013-09-04 12:54:00,76.3,21.9,29.59,WNW,292,0.0,0.0,13,0.00,,---,0.04,VWS V13.01,2013-09-04 16:54:00,
2013-09-04 13:00:00,75.6,21.3,29.59,North,353,0.0,0.0,13,0.00,,---,0.04,VWS V13.01,2013-09-04 17:00:00,
2013-09-04 13:05:00,75.6,21.3,29.59,WSW,255,0.0,0.0,13,0.00,,---,0.04,VWS V13.01,2013-09-04 17:05:00,
2013-09-04 13:10:00,75.6,21.3,29.59,NW,306,0.0,0.0,13,0.00,,---,0.04,VWS V13.01,2013-09-04 17:10:00,
2013-09-04 13:15:00,75.2,21.0,29.59,North,357,0.0,0.0,13,0.00,,---,0.04,VWS V13.01,2013-09-04 17:15:00,
2013-09-04 13:20:00,75.0,20.9,29.59,NNW,346,0.0,0.0,13,0.00,,---,0.04,VWS V13.01,2013-09-04 17:20:00,
2013-09-04 13:25:00,74.8,20.7,29.59,West,261,0.0,0.0,13,0.00,,---,0.04,VWS V13.01,2013-09-04 17:25:00,
2013-09-04 13:30:00,75.2,21.0,29.62,SW,222,0.0,0.0,13,0.00,,---,0.04,VWS V13.01,2013-09-04 17:30:00,
2013-09-04 13:35:00,77.5,22.9,29.62,West,267,0.0,0.0,13,0.00,,---,0.04,VWS V13.01,2013-09-04 17:35:00,
2013-09-04 13:40:00,77.4,22.7,29.62,NW,317,0.0,0.0,13,0.00,,---,0.04,VWS V13.01,2013-09-04 17:40:00,
2013-09-04 13:45:00,76.5,22.0,29.62,SSW,213,0.0,0.0,13,0.00,,---,0.04,VWS V13.01,2013-09-04 17:45:00,
2013-09-04 13:50:00,76.6,22.1,29.62,WNW,293,0.0,0.0,13,0.00,,---,0.04,VWS V13.01,2013-09-04 17:50:00,
2013-09-04 13:55:00,76.6,22.1,29.62,NW,318,0.0,0.0,13,0.00,,---,0.04,VWS V13.01,2013-09-04 17:55:00,
2013-09-04 14:00:00,77.9,23.1,29.59,NNW,340,0.0,0.0,13,0.00,,---,0.04,VWS V13.01,2013-09-04 18:00:00,
2013-09-04 14:06:00,79.5,22.5,29.59,SSW,196,0.0,0.0,12,0.00,,---,0.04,VWS V13.01,2013-09-04 18:06:00,
2013-09-04 14:11:00,78.6,23.7,29.59,NW,306,0.0,0.0,13,0.00,,---,0.04,VWS V13.01,2013-09-04 18:11:00,
2013-09-04 14:16:00,78.4,23.6,29.59,NW,322,0.0,0.0,13,0.00,,---,0.04,VWS V13.01,2013-09-04 18:16:00,
2013-09-04 14:21:00,77.4,22.7,29.59,WNW,287,0.0,0.0,13,0.00,,---,0.04,VWS V13.01,2013-09-04 18:21:00,
2013-09-04 14:26:00,76.5,22.0,29.59,NNW,334,0.0,0.0,13,0.00,,---,0.04,VWS V13.01,2013-09-04 18:26:00,
2013-09-04 14:31:00,75.9,21.6,29.59,WSW,253,0.0,2.7,13,0.00,,---,0.04,VWS V13.01,2013-09-04 18:31:00,
2013-09-04 14:36:00,75.7,21.5,29.59,NW,310,0.0,2.7,13,0.00,,---,0.04,VWS V13.01,2013-09-04 18:36:00,
2013-09-04 14:41:00,75.6,21.3,29.59,NW,321,0.0,0.0,13,0.00,,---,0.04,VWS V13.01,2013-09-04 18:41:00,
2013-09-04 14:46:00,75.4,21.2,29.59,WSW,256,2.7,2.7,13,0.00,,---,0.04,VWS V13.01,2013-09-04 18:46:00,
2013-09-04 14:51:00,75.2,21.0,29.59,WSW,240,0.0,2.7,13,0.00,,---,0.04,VWS V13.01,2013-09-04 18:51:00,
2013-09-04 14:56:00,75.2,21.0,29.59,SSW,193,0.0,2.7,13,0.00,,---,0.04,VWS V13.01,2013-09-04 18:56:00,
2013-09-04 15:01:00,75.4,21.2,29.59,West,270,0.0,0.0,13,0.00,,---,0.04,VWS V13.01,2013-09-04 19:01:00,
2013-09-04 15:07:00,75.4,21.2,29.59,WNW,293,0.0,0.0,13,0.00,,---,0.04,VWS V13.01,2013-09-04 19:07:00,
2013-09-04 15:12:00,75.4,21.2,29.59,SW,234,0.0,3.1,13,0.00,,---,0.04,VWS V13.01,2013-09-04 19:12:00,
2013-09-04 15:17:00,75.4,21.2,29.59,West,278,0.0,3.1,13,0.00,,---,0.04,VWS V13.01,2013-09-04 19:17:00,
2013-09-04 15:22:00,75.4,21.2,29.59,WSW,255,0.0,0.0,13,0.00,,---,0.04,VWS V13.01,2013-09-04 19:22:00,
2013-09-04 15:27:00,75.4,21.2,29.59,NW,304,0.0,0.0,13,0.00,,---,0.04,VWS V13.01,2013-09-04 19:27:00,
2013-09-04 15:32:00,75.6,21.3,29.59,WSW,258,0.0,3.6,13,0.00,,---,0.04,VWS V13.01,2013-09-04 19:32:00,
2013-09-04 15:37:00,75.4,21.2,29.59,SSW,211,0.0,3.6,13,0.00,,---,0.04,VWS V13.01,2013-09-04 19:37:00,
2013-09-04 15:42:00,75.4,21.2,29.59,North,349,0.0,0.0,13,0.00,,---,0.04,VWS V13.01,2013-09-04 19:42:00,
2013-09-04 15:47:00,75.6,21.3,29.59,West,262,0.0,0.0,13,0.00,,---,0.04,VWS V13.01,2013-09-04 19:47:00,
2013-09-04 15:52:00,75.6,21.3,29.59,NNW,341,0.0,0.0,13,0.00,,---,0.04,VWS V13.01,2013-09-04 19:52:00,
2013-09-04 15:57:00,75.7,21.5,29.59,WSW,245,0.0,0.0,13,0.00,,---,0.04,VWS V13.01,2013-09-04 19:57:00,
2013-09-04 16:03:00,75.7,21.5,29.59,NW,304,0.0,0.0,13,0.00,,---,0.04,VWS V13.01,2013-09-04 20:03:00,
2013-09-04 16:08:00,75.7,21.5,29.59,SW,235,0.0,0.0,13,0.00,,---,0.04,VWS V13.01,2013-09-04 20:08:00,
2013-09-04 16:13:00,75.9,21.6,29.59,WSW,251,0.0,0.0,13,0.00,,---,0.04,VWS V13.01,2013-09-04 20:13:00,
2013-09-04 16:18:00,75.9,21.6,29.59,NW,314,0.0,0.0,13,0.00,,---,0.04,VWS V13.01,2013-09-04 20:18:00,
2013-09-04 16:23:00,75.9,21.6,29.59,SW,235,0.0,0.0,13,0.00,,---,0.04,VWS V13.01,2013-09-04 20:23:00,
2013-09-04 16:28:00,76.3,21.9,29.59,NNW,327,0.0,2.7,13,0.00,,---,0.04,VWS V13.01,2013-09-04 20:28:00,
2013-09-04 16:33:00,76.3,21.9,29.59,NW,308,0.0,2.7,13,0.00,,---,0.04,VWS V13.01,2013-09-04 20:33:00,
2013-09-04 16:38:00,76.5,22.0,29.59,NW,310,0.0,4.7,13,0.00,,---,0.04,VWS V13.01,2013-09-04 20:38:00,
2013-09-04 16:43:00,76.5,22.0,29.59,NW,305,0.0,0.0,13,0.00,,---,0.04,VWS V13.01,2013-09-04 20:43:00,
2013-09-04 16:48:00,76.3,21.9,29.59,NW,325,0.0,0.0,13,0.00,,---,0.04,VWS V13.01,2013-09-04 20:48:00,
2013-09-04 16:53:00,76.1,21.7,29.59,WSW,251,0.0,0.0,13,0.00,,---,0.04,VWS V13.01,2013-09-04 20:53:00,
2013-09-04 16:58:00,76.1,21.7,29.59,NW,305,0.0,0.0,13,0.00,,---,0.04,VWS V13.01,2013-09-04 20:58:00,
2013-09-04 17:04:00,75.9,21.6,29.59,WNW,301,0.0,0.0,13,0.00,,---,0.04,VWS V13.01,2013-09-04 21:04:00,
2013-09-04 17:09:00,75.7,21.5,29.59,WNW,301,0.0,0.0,13,0.00,,---,0.04,VWS V13.01,2013-09-04 21:09:00,
2013-09-04 17:14:00,75.6,21.3,29.59,WSW,247,0.0,0.0,13,0.00,,---,0.04,VWS V13.01,2013-09-04 21:14:00,
2013-09-04 17:19:00,75.6,21.3,29.59,WSW,247,0.0,0.0,13,0.00,,---,0.04,VWS V13.01,2013-09-04 21:19:00,
2013-09-04 17:24:00,75.4,21.2,29.59,NW,310,0.0,0.0,13,0.00,,---,0.04,VWS V13.01,2013-09-04 21:24:00,
2013-09-04 17:29:00,75.2,21.0,29.59,West,279,0.0,0.0,13,0.00,,---,0.04,VWS V13.01,2013-09-04 21:29:00,
2013-09-04 17:34:00,75.0,20.9,29.59,WNW,283,0.0,0.0,13,0.00,,---,0.04,VWS V13.01,2013-09-04 21:34:00,
2013-09-04 17:39:00,74.8,20.7,29.59,West,281,0.0,0.0,13,0.00,,---,0.04,VWS V13.01,2013-09-04 21:39:00,
2013-09-04 17:44:00,74.8,20.7,29.59,NNW,342,0.0,0.0,13,0.00,,---,0.04,VWS V13.01,2013-09-04 21:44:00,
2013-09-04 17:49:00,74.8,20.7,29.59,West,259,0.0,0.0,13,0.00,,---,0.04,VWS V13.01,2013-09-04 21:49:00,
2013-09-04 17:54:00,74.5,20.5,29.59,West,266,0.0,0.0,13,0.00,,---,0.04,VWS V13.01,2013-09-04 21:54:00,
2013-09-04 17:59:00,73.9,20.0,29.59,NW,311,0.0,0.0,13,0.00,,---,0.04,VWS V13.01,2013-09-04 21:59:00,
2013-09-04 18:05:00,73.6,19.8,29.59,NW,310,0.0,0.0,13,0.00,,---,0.04,VWS V13.01,2013-09-04 22:05:00,
2013-09-04 18:10:00,73.2,21.2,29.59,NW,310,0.0,0.0,14,0.00,,---,0.04,VWS V13.01,2013-09-04 22:10:00,
2013-09-04 18:15:00,72.9,20.9,29.59,WNW,303,0.0,0.0,14,0.00,,---,0.04,VWS V13.01,2013-09-04 22:15:00,
2013-09-04 18:20:00,72.5,20.6,29.59,WNW,303,0.0,0.0,14,0.00,,---,0.04,VWS V13.01,2013-09-04 22:20:00,
2013-09-04 18:25:00,72.3,20.5,29.59,WNW,303,0.0,0.0,14,0.00,,---,0.04,VWS V13.01,2013-09-04 22:25:00,
2013-09-04 18:30:00,72.0,20.2,29.59,WNW,303,0.0,0.0,14,0.00,,---,0.04,VWS V13.01,2013-09-04 22:30:00,
2013-09-04 18:35:00,71.8,20.1,29.59,WNW,303,0.0,0.0,14,0.00,,---,0.04,VWS V13.01,2013-09-04 22:35:00,
2013-09-04 18:40:00,71.4,19.8,29.59,WNW,303,0.0,0.0,14,0.00,,---,0.04,VWS V13.01,2013-09-04 22:40:00,
2013-09-04 18:45:00,71.2,19.6,29.59,WNW,303,0.0,0.0,14,0.00,,---,0.04,VWS V13.01,2013-09-04 22:45:00,
2013-09-04 18:50:00,70.9,19.4,29.59,WNW,303,0.0,0.0,14,0.00,,---,0.04,VWS V13.01,2013-09-04 22:50:00,
2013-09-04 18:55:00,70.5,23.6,29.59,WNW,303,0.0,0.0,17,0.00,,---,0.04,VWS V13.01,2013-09-04 22:55:00,
2013-09-04 19:01:00,70.3,23.5,29.59,West,270,0.0,0.0,17,0.00,,---,0.04,VWS V13.01,2013-09-04 23:01:00,
2013-09-04 19:06:00,70.3,18.9,29.59,West,270,0.0,0.0,14,0.00,,---,0.04,VWS V13.01,2013-09-04 23:06:00,
2013-09-04 19:11:00,70.2,23.4,29.59,West,270,0.0,0.0,17,0.00,,---,0.04,VWS V13.01,2013-09-04 23:11:00,
2013-09-04 19:16:00,70.0,23.2,29.59,West,270,0.0,0.0,17,0.00,,---,0.04,VWS V13.01,2013-09-04 23:16:00,
2013-09-04 19:21:00,69.8,23.1,29.59,West,269,0.0,0.0,17,0.00,,---,0.04,VWS V13.01,2013-09-04 23:21:00,
2013-09-04 19:26:00,69.4,22.8,29.59,West,269,0.0,0.0,17,0.00,,---,0.04,VWS V13.01,2013-09-04 23:26:00,
2013-09-04 19:31:00,69.1,22.5,29.59,West,269,0.0,0.0,17,0.00,,---,0.04,VWS V13.01,2013-09-04 23:31:00,
2013-09-04 19:36:00,68.9,22.3,29.59,West,269,0.0,0.0,17,0.00,,---,0.04,VWS V13.01,2013-09-04 23:36:00,
2013-09-04 19:41:00,68.5,22.0,29.59,West,269,0.0,0.0,17,0.00,,---,0.04,VWS V13.01,2013-09-04 23:41:00,
2013-09-04 19:46:00,68.0,21.6,29.59,West,269,0.0,0.0,17,0.00,,---,0.04,VWS V13.01,2013-09-04 23:46:00,
2013-09-04 19:52:00,67.6,21.3,29.59,West,269,0.0,0.0,17,0.00,,---,0.04,VWS V13.01,2013-09-04 23:52:00,
2013-09-04 19:57:00,67.3,21.0,29.59,West,269,0.0,0.0,17,0.00,,---,0.04,VWS V13.01,2013-09-04 23:57:00,
2013-09-04 20:02:00,67.1,24.7,29.59,West,269,0.0,0.0,20,0.00,,---,0.04,VWS V13.01,2013-09-05 00:02:00,
2013-09-04 20:07:00,66.7,24.4,29.59,West,269,0.0,0.0,20,0.00,,---,0.04,VWS V13.01,2013-09-05 00:07:00,
2013-09-04 20:12:00,66.4,24.1,29.59,West,269,0.0,0.0,20,0.00,,---,0.04,VWS V13.01,2013-09-05 00:12:00,
2013-09-04 20:17:00,66.2,26.3,29.59,West,269,0.0,0.0,22,0.00,,---,0.04,VWS V13.01,2013-09-05 00:17:00,
2013-09-04 20:22:00,66.0,27.2,29.59,West,269,0.0,0.0,23,0.00,,---,0.04,VWS V13.01,2013-09-05 00:22:00,
2013-09-04 20:27:00,65.8,27.0,29.59,West,269,0.0,0.0,23,0.00,,---,0.04,VWS V13.01,2013-09-05 00:27:00,
2013-09-04 20:32:00,65.7,26.9,29.59,West,269,0.0,0.0,23,0.00,,---,0.04,VWS V13.01,2013-09-05 00:32:00,
2013-09-04 20:38:00,65.5,26.7,29.59,West,269,0.0,0.0,23,0.00,,---,0.04,VWS V13.01,2013-09-05 00:38:00,
2013-09-04 20:43:00,65.3,26.6,29.59,West,269,0.0,0.0,23,0.00,,---,0.04,VWS V13.01,2013-09-05 00:43:00,
2013-09-04 20:48:00,65.1,27.5,29.59,West,269,0.0,0.0,24,0.00,,---,0.04,VWS V13.01,2013-09-05 00:48:00,
2013-09-04 20:53:00,64.9,27.3,29.59,West,269,0.0,0.0,24,0.00,,---,0.04,VWS V13.01,2013-09-05 00:53:00,
2013-09-04 20:58:00,64.8,27.2,29.59,West,269,0.0,0.0,24,0.00,,---,0.04,VWS V13.01,2013-09-05 00:58:00,
2013-09-04 21:03:00,64.6,28.0,29.59,West,269,0.0,0.0,25,0.00,,---,0.04,VWS V13.01,2013-09-05 01:03:00,
2013-09-04 21:08:00,64.4,27.8,29.59,West,269,0.0,0.0,25,0.00,,---,0.04,VWS V13.01,2013-09-05 01:08:00,
2013-09-04 21:13:00,64.2,27.7,29.59,West,269,0.0,0.0,25,0.00,,---,0.04,VWS V13.01,2013-09-05 01:13:00,
2013-09-04 21:19:00,64.2,28.6,29.59,West,268,0.0,0.0,26,0.00,,---,0.04,VWS V13.01,2013-09-05 01:19:00,
2013-09-04 21:24:00,64.0,28.5,29.59,West,269,0.0,0.0,26,0.00,,---,0.04,VWS V13.01,2013-09-05 01:24:00,
2013-09-04 21:29:00,64.0,28.5,29.59,West,269,0.0,0.0,26,0.00,,---,0.04,VWS V13.01,2013-09-05 01:29:00,
2013-09-04 21:34:00,63.9,28.3,29.62,West,269,0.0,0.0,26,0.00,,---,0.04,VWS V13.01,2013-09-05 01:34:00,
2013-09-04 21:39:00,63.9,28.3,29.62,West,269,0.0,0.0,26,0.00,,---,0.04,VWS V13.01,2013-09-05 01:39:00,
2013-09-04 21:44:00,63.9,28.3,29.62,West,269,0.0,0.0,26,0.00,,---,0.04,VWS V13.01,2013-09-05 01:44:00,
2013-09-04 21:49:00,63.7,28.2,29.62,West,269,0.0,0.0,26,0.00,,---,0.04,VWS V13.01,2013-09-05 01:49:00,
2013-09-04 21:54:00,63.5,28.0,29.62,West,269,0.0,0.0,26,0.00,,---,0.04,VWS V13.01,2013-09-05 01:54:00,
2013-09-04 21:59:00,63.5,28.0,29.62,West,269,0.0,0.0,26,0.00,,---,0.04,VWS V13.01,2013-09-05 01:59:00,
2013-09-04 22:05:00,63.3,27.9,29.62,West,269,0.0,0.0,26,0.00,,---,0.04,VWS V13.01,2013-09-05 02:05:00,
2013-09-04 22:10:00,63.1,27.7,29.62,West,269,0.0,0.0,26,0.00,,---,0.04,VWS V13.01,2013-09-05 02:10:00,
2013-09-04 22:15:00,63.1,27.7,29.62,West,269,0.0,0.0,26,0.00,,---,0.04,VWS V13.01,2013-09-05 02:15:00,
2013-09-04 22:20:00,63.0,27.6,29.62,West,269,0.0,0.0,26,0.00,,---,0.04,VWS V13.01,2013-09-05 02:20:00,
2013-09-04 22:25:00,63.0,28.5,29.62,West,269,0.0,0.0,27,0.00,,---,0.04,VWS V13.01,2013-09-05 02:25:00,
2013-09-04 22:30:00,62.8,28.3,29.62,West,269,0.0,0.0,27,0.00,,---,0.04,VWS V13.01,2013-09-05 02:30:00,
2013-09-04 22:35:00,62.6,28.2,29.62,West,269,0.0,0.0,27,0.00,,---,0.04,VWS V13.01,2013-09-05 02:35:00,
2013-09-04 22:41:00,62.6,28.2,29.62,West,269,0.0,0.0,27,0.00,,---,0.04,VWS V13.01,2013-09-05 02:41:00,
2013-09-04 22:46:00,62.6,28.2,29.62,West,269,0.0,0.0,27,0.00,,---,0.04,VWS V13.01,2013-09-05 02:46:00,
2013-09-04 22:51:00,62.6,29.1,29.62,West,269,0.0,0.0,28,0.00,,---,0.04,VWS V13.01,2013-09-05 02:51:00,
2013-09-04 22:56:00,62.6,29.1,29.62,West,269,0.0,0.0,28,0.00,,---,0.04,VWS V13.01,2013-09-05 02:56:00,
2013-09-04 23:01:00,62.4,29.8,29.62,West,269,0.0,0.0,29,0.00,,---,0.04,VWS V13.01,2013-09-05 03:01:00,
2013-09-04 23:06:00,62.2,29.6,29.62,West,269,0.0,0.0,29,0.00,,---,0.04,VWS V13.01,2013-09-05 03:06:00,
2013-09-04 23:11:00,62.2,29.6,29.62,West,269,0.0,0.0,29,0.00,,---,0.04,VWS V13.01,2013-09-05 03:11:00,
2013-09-04 23:16:00,62.1,29.5,29.62,West,269,0.0,0.0,29,0.00,,---,0.04,VWS V13.01,2013-09-05 03:16:00,
2013-09-04 23:21:00,61.9,29.3,29.62,West,269,0.0,0.0,29,0.00,,---,0.04,VWS V13.01,2013-09-05 03:21:00,
2013-09-04 23:27:00,61.9,29.3,29.62,West,269,0.0,0.0,29,0.00,,---,0.04,VWS V13.01,2013-09-05 03:27:00,
2013-09-04 23:32:00,61.9,29.3,29.62,West,269,0.0,0.0,29,0.00,,---,0.04,VWS V13.01,2013-09-05 03:32:00,
2013-09-04 23:37:00,61.9,29.3,29.62,West,269,0.0,0.0,29,0.00,,---,0.04,VWS V13.01,2013-09-05 03:37:00,
2013-09-04 23:42:00,61.7,29.1,29.62,West,269,0.0,0.0,29,78.78,,---,0.04,VWS V13.01,2013-09-05 03:42:00,
2013-09-04 23:47:00,61.9,30.1,29.62,West,269,0.0,0.0,30,0.00,,---,0.04,VWS V13.01,2013-09-05 03:47:00,
2013-09-04 23:52:00,61.9,30.1,29.62,West,269,0.0,0.0,30,0.00,,---,0.04,VWS V13.01,2013-09-05 03:52:00,
2013-09-04 23:57:00,61.9,30.9,29.62,West,269,0.0,0.0,31,0.00,,---,0.04,VWS V13.01,2013-09-05 03:57:00,